Find Starlink 11230

NORAD ID: 61053 Int'l Des: 2024-164 Owner: SPXS Country: US Constellation: starlink operational
LEOCIRCULAR

現在のビュー

3D地球を読み込み中...

About Starlink 11230

Starlink 11230 (NORAD 61053) is a starlink constellation satellite (v2 mini d2c) launched Sep 13, 2024 by SPXS of US. It operates in LEO, CIRCULAR orbit with a mass of 960.00 kg.

Starlink 11230について

説明を読み込み中...

次回通過

Passes for default location (London). Set your location on the main map for personalized predictions.

高度履歴

Loading altitude history...

軌道要素

1 61053U 24164D 26171.40538988 .00001185 00000-0 14644-4 0 9992
2 61053 53.1597 164.7683 0001261 62.4889 297.6257 15.69703658101559
Epoch: Jun 20, 2026 • Age: 36 hours

現在のステータス

高度 360.8 km
速度 7.70 km/s
衛星直下点 26.94°N, 82.7°E
打ち上げ日 Sep 13, 2024
運用期間 1.7 years
タイプ internet

技術仕様

分類 Payload
質量 960.00 kg
乾燥質量 910.00 kg
総質量 960.00 kg
長さ 0.30 m
直径 4.10 m
スパン 29.00 m
形状 Box + pan
製造者 SPXS
バスタイプ Starlink V2MD
フェーズステータス In Orbit
所有者/国 SPXS/US

Most Searched